Location: *
(29.1167°S, 130.0000°E)
Time: 23:53:09
(UTC+00:00)

CZ-2C R/B - Pass Details

Date: 21 July 2019
Orbit: 641 x 704 km, 98.4° (Epoch: 23 August)

Event Time Altitude Azimuth Distance (km) Brightness Sun altitude
Rises 09:56:35 0° 10° (N) 3,074 7.2 -16.1°
Reaches altitude 10° 09:58:50 10° 8° (N) 2,159 6.4 -16.6°
Maximum altitude 10:03:34 77° 282° (WNW) 722 3.9 -17.6°
Drops below altitude 10° 10:08:18 10° 196° (SSW) 2,158 6.4 -18.6°
Sets 10:10:33 0° 194° (SSW) 3,072 7.1 -19.1°
